Location: Ammerl�gen
(47.2167°N, 9.6000°E)
Time: 12:30:00
(UTC+00:00)

Iridium 4 Rocket - Pass Details

Date: 04 August 2021
Orbit: 583 x 905 km, 86.9° (Epoch: 25 September)

Event Time Altitude Azimuth Distance (km) Brightness Sun altitude
Rises 23:47:18 0° 4° (N) 3,471 8.3 -25.7°
Reaches altitude 10° 23:49:59 10° 15° (NNE) 2,558 7.2 -25.6°
Maximum altitude 23:55:11 32° 77° (ENE) 1,497 5.1 -25.5°
Enters shadow 23:57:27 25° 116° (ESE) 1,754 5.2 -25.5°
